User: anonymous   Login
Location: ROBOsky.com Wild Flower Ridge Observatory
(43.9736°N, 79.9739°W)
Time: 11:36:44
(UTC-04:00)
Language:

Cosmos 1190 Rocket - Orbit

View from above orbital plane
View from above orbital plane
View from above satellite
View from above satellite

Ground track
Ground track

The orbit data is extracted from the following two-line orbital elements,

1 11870U 80056B   16270.20297129  .00000026  00000-0  17675-4 0  9992
2 11870  74.0538 332.4652 0016768 346.8542  13.2171 14.36816658896894
Epoch (UTC): 26 September 2016 04:52:16
Eccentricity: 0.0016768
inclination: 74.0538°
perigee height: 757 km
apogee height: 781 km
right ascension of ascending node: 332.4652°
argument of perigee: 346.8542°
revolutions per day: 14.36816658
mean anomaly at epoch: 13.2171°
orbit number at epoch: 89689

The dashed part of the orbit path shows where the satellite is in the earth's shadow,  

DLR